Back to catalog

GEESAT 2-09

AliveCommunicationsLEO
NORAD 58913·PAYLOAD·🇨🇳 China

Launched Feb 2, 2024 from Xichang Satellite Launch Center

Loading…

Next Passes (next 24 hours)

TLE

FreshSource: Space-Track

Epoch: Sep 14, 2026, 22:46 UTC

1 58913U 24023J   26257.94921232  .00001029  00000-0  15119-3 0  9993
2 58913  50.0040 298.4273 0021343 350.6777   9.3762 14.83441483142240

Track GEESAT 2-09 in real time with AllMySat

Download on the App Store